千帆星座-62 (QIANFAN-62)

导读

QIANFAN-62 是中国“北斗”卫星导航系统的一部分,属于北斗三号系统的地球静止轨道卫星。该卫星由中国自主研发,主要用于提供高精度定位、导航和授时服务,支持全球范围内的应用。QIANFAN-62 的发射增强了北斗系统的稳定性和覆盖能力,提升了在复杂环境下的导航性能。该卫星广泛服务于交通运输、通信、农业、应急救援等多个领域,对推动国家信息化建设和提升国际竞争力具有重要意义。

Basic Information
目录编号:
62792
目录名称:
QIANFAN-62
国际标识:
2025-016H
轨道中心:
EARTH
卫星名称:
千帆星座-62
卫星全名:
千帆星座-62 (QIANFAN-62)
卫星状态:
在轨 (已飞行596 天)
发射日期:
2025-01-23 UTC
国别 :
中国 (CN)
星等 :
--
This satellite is enrolled in the Space Conjunction Data Service (SCDS) and the current flight risk assessment level is: No High Risk
Orbit Information
数据来源 国际轨道数据 AOE轨道数据
星历时间 2026-09-11T13:17:38+0800
11小时前
查看轨道信息
2026-09-10T17:00:00+0800
1天前
查看轨道信息
半长轴 7446.648km 7446.644km
偏心率 0.001421 0.001419
轨道倾角 88.966° 88.966°
近地点辐角 277.140° 279.649°
升交点赤经 74.803° 74.891°
平近点角 82.814° 290.113°
近地点 1057.929km 1057.94km
远地点 1079.093km 1079.074km
周期 106.586分钟 106.586分钟
每日圈数 13.510194 13.510205
Detailed Information
卫星平台:
62
覆盖范围:
全球
运营商:
上海垣信卫星科技有限公司
运营商所在国:
中国
使用方式:
暂无
Satellite Introduction
千帆星座,也被称为“G60星链”计划,是中国版“星链”的重要组成部分,旨在打造一个由1.4万多颗低轨宽频多媒体卫星构成的庞大星座。千帆星座计划由上海垣信卫星科技有限公司负责实施,于2023年启动建设。该项目是我国第二个低轨卫星大星座,旨在通过构建庞大的卫星网络,为全球用户提供高质量的通信和宽带互联网服务。
2D Orbit Map
3D Orbit Map
Orbit Altitude Analysis Chart
Orbit Inclination Analysis Chart
Orbit Comprehensive Analysis Chart
View Comprehensive Chart
Conjunction Data List
Event ID Objects TCA Miss Dist (km) Collision Risk Probability Collision Risk Index (CRI) Action
CDM_260906-060604-254306-279225
2026-09-06T
06:06:42+0000
2.176 km
极远距离
2.315137E-6 低风险 0.42
Miss Distance Evolution Trend with All Objects
Collision Probability Evolution Trend with All Objects